#timestamp,LO_Frequency,Hit 
1502632815.4,286047002.6,N
1502632835.2,286047000.2,N
1502632855.1,286046998.4,N
1502632856.0,286046998.4,N
1502632875.8,286046999.0,N
1502632895.7,286047002.0,N
1502632915.5,286047002.8,N
1502632935.3,286046998.1,N
1502632955.1,286046998.4,N
1502632975.9,286046999.9,N
1502632995.7,286047002.6,N
1502633015.5,286047003.3,N
1502633035.4,286047006.4,N
1502633055.2,286047004.7,N
1502633075.0,286047005.8,N
1502633075.9,286047005.8,N
1502633095.8,286047004.8,N
1502633115.6,286047005.5,N
1502633135.4,286047005.9,N
1502633155.3,286047005.9,N
1502633175.1,286047005.2,N
1502633176.0,286047005.2,N
1502633195.8,286047004.5,N
1502633215.7,286047007.2,N
1502633235.5,286047005.3,N
1502633255.3,286047009.1,N
1502633275.2,286047005.2,N
1502633295.9,286047000.2,N
1502633315.7,286047000.6,N
1502633335.6,286046999.0,N
1502633355.4,286046997.1,N
1502633375.2,286046995.4,N
1502633395.0,286046997.1,N
1502633395.9,286046997.1,N
1502633415.8,286046995.7,N
1502633435.6,286046995.1,N
1502633455.4,286046997.5,N
1502633475.3,286046997.3,N
1502633495.7,286046998.8,N
1502633515.5,286047001.7,N
1502633535.4,286047001.6,N
1502633555.2,286047004.3,N
1502633575.0,286046999.9,N
1502633575.9,286046999.9,N
1502633595.8,286047004.1,N
1502633615.6,286047001.6,N
1502633635.4,286047004.1,N
1502633655.2,286047006.8,N
1502633675.1,286047005.1,N
1502633676.0,286047005.1,N
1502633695.8,286047002.0,N
1502633715.6,286046996.6,N
1502633735.6,286047000.9,N
1502633755.4,286046995.0,N
1502633775.3,286046995.3,N
1502633795.1,286046995.7,N
1502633796.0,286046995.7,N
1502633815.8,286046995.4,N
1502633835.7,286046994.4,N
1502633855.5,286046990.5,N
1502633875.3,286046991.3,N
1502633895.1,286046994.2,N
1502633915.9,286046994.3,N
1502633935.7,286046993.0,N
1502633955.5,286046992.8,N
1502633975.4,286046990.5,N
1502633995.2,286046989.0,N
1502634015.0,286046989.1,N
1502634015.9,286046989.1,N
1502634035.8,286046989.2,N
1502634055.6,286046985.6,N
1502634075.4,286046986.3,N
1502634095.3,286046989.1,N
1502634115.1,286046988.9,N
1502634116.0,286046988.9,N
1502634135.8,286046990.4,N
1502634155.7,286046986.9,N
1502634175.5,286046992.7,N
1502634195.3,286046992.8,N
1502634215.2,286046993.9,N
1502634235.9,286046995.9,N
1502634255.7,286046993.9,N
1502634275.6,286046992.2,N
1502634295.4,286046993.3,N
1502634315.2,286046997.1,N
1502634335.1,286047000.9,N
1502634336.0,286047000.9,N
1502634355.8,286046999.2,N
1502634375.6,286047001.1,N
1502634395.5,286047002.7,N
1502634415.3,286047000.2,N
1502634435.1,286047000.7,N
1502634455.8,286047001.0,N
1502634475.7,286047002.7,N
1502634495.5,286047002.2,N
1502634515.3,286046998.3,N
1502634535.2,286047000.6,N
1502634555.9,286046998.9,N
1502634575.7,286046995.5,N
1502634595.6,286046994.9,N
1502634615.4,286046996.0,N
1502634635.2,286046996.3,N
1502634655.1,286046997.1,N
1502634656.0,286046997.1,N
1502634675.8,286046997.9,N
1502634695.6,286047000.7,N
1502634715.5,286047001.1,N
1502634735.3,286046998.4,N
1502634755.1,286047001.7,N
1502634775.9,286047002.3,N
1502634795.7,286047000.5,N
1502634815.5,286046998.1,N
1502634835.4,286047000.5,N
1502634855.2,286047000.9,N
1502634875.0,286046999.3,N
1502634875.9,286046999.3,N
1502634895.8,286047000.5,N
1502634915.6,286046998.1,N
1502634935.4,286046998.5,N
1502634955.2,286047002.2,N
1502634975.1,286047001.6,N
1502634976.0,286047001.6,N
1502634995.8,286047002.4,N
1502635015.6,286047005.8,N
1502635035.5,286047006.7,N
1502635055.3,286047008.0,N
1502635075.1,286047004.7,N
1502635095.9,286047005.5,N
1502635115.7,286047006.0,N
1502635135.5,286047005.8,N
1502635155.3,286047003.1,N
1502635175.1,286047004.7,N
1502635195.9,286047003.6,N
1502635215.7,286047004.6,N
1502635235.5,286047006.4,N
1502635255.4,286047008.9,P
1502635275.2,286047008.4,N
1502635295.0,286047009.9,P
1502635296.0,286047009.9,P
1502635315.8,286047002.2,N
1502635335.6,286047004.4,N
1502635355.5,286047004.2,N
1502635375.3,286047005.3,N
1502635395.1,286047003.8,N
1502635415.8,286047004.2,N
1502635435.7,286047003.6,N
1502635455.5,286047003.6,N
1502635475.3,286047004.4,N
1502635495.2,286047001.7,N
1502635515.0,286047001.4,N
1502635535.8,286046998.3,N
1502635555.6,286046997.5,N
1502635575.5,286046995.3,N
1502635595.3,286046996.0,N
1502635615.1,286046992.8,N
1502635635.9,286046992.0,N
1502635655.7,286046992.1,N
1502635675.5,286046993.1,N
1502635695.4,286046991.2,N
1502635715.2,286046987.5,N
1502635735.0,286046985.6,N
1502635735.9,286046985.6,N
1502635755.7,286046989.8,N
1502635775.5,286046988.7,N
1502635795.4,286046988.7,N
1502635815.2,286046995.3,N
1502635835.0,286046993.6,N
1502635835.9,286046993.6,N
1502635855.8,286046990.1,N
1502635875.6,286046993.0,N
1502635895.4,286046993.9,N
1502635915.2,286046994.4,N
1502635935.1,286046991.2,N
1502635936.0,286046991.2,N
1502635955.8,286046988.7,N
1502635975.6,286046989.0,N
1502635995.5,286046988.2,N
1502636015.3,286046985.4,P
1502636035.1,286046993.7,N
1502636055.9,286046992.2,N
1502636075.7,286046992.9,N
1502636095.5,286046991.5,N
1502636115.4,286046988.5,P
1502636135.2,286047004.4,N
1502636155.0,286047000.6,N
1502636156.0,286047000.6,N
1502636175.8,286047004.4,N
1502636195.6,286047004.4,N
1502636215.4,286047003.2,N
1502636235.3,286047004.0,N
1502636255.1,286047002.8,N
1502636275.8,286047004.0,N
1502636295.7,286047002.1,N
1502636315.5,286047002.0,N
1502636335.3,286047000.1,N
1502636355.2,286047004.2,N
1502636375.9,286047004.1,N
1502636395.7,286047002.9,N
